Time,TemperatureF,DewpointF,PressureIn,WindDirection,WindDirectionDegrees,WindSpeedMPH,WindSpeedGustMPH,Humidity,HourlyPrecipIn,Conditions,Clouds,dailyrainin,SoftwareType,DateUTC
2013-07-22 00:00:00,69.2,69.2,29.85,NNE,22,0.0,0.0,100,0.04,,CLR,0.00,VWS V14.01,2013-07-22 05:00:00,
2013-07-22 00:03:00,69.2,69.2,29.88,NNE,22,0.0,0.0,100,0.04,,-RA,0.00,VWS V14.01,2013-07-22 05:03:00,
2013-07-22 00:05:00,69.3,69.3,29.85,NNE,22,0.0,0.0,100,0.04,,CLR,0.00,VWS V14.01,2013-07-22 05:05:00,
2013-07-22 00:08:00,69.2,69.2,29.88,NNE,22,0.0,0.0,100,0.04,,-RA,0.00,VWS V14.01,2013-07-22 05:08:00,
2013-07-22 00:10:00,69.2,69.2,29.88,NNE,22,0.0,0.0,100,0.04,,CLR,0.00,VWS V14.01,2013-07-22 05:10:00,
2013-07-22 00:13:00,69.2,69.2,29.85,NNE,22,0.0,0.0,100,0.04,,-RA,0.00,VWS V14.01,2013-07-22 05:13:00,
2013-07-22 00:15:00,69.2,69.2,29.88,NNE,22,0.0,0.0,100,0.04,,CLR,0.00,VWS V14.01,2013-07-22 05:15:00,
2013-07-22 00:19:00,69.2,69.2,29.85,NNE,22,0.0,0.0,100,0.04,,-RA,0.00,VWS V14.01,2013-07-22 05:19:00,
2013-07-22 00:20:00,69.2,69.2,29.88,NNE,22,0.0,0.0,100,0.04,,CLR,0.00,VWS V14.01,2013-07-22 05:20:00,
2013-07-22 00:24:00,69.0,69.0,29.85,NNE,22,0.0,0.0,100,0.04,,-RA,0.00,VWS V14.01,2013-07-22 05:24:00,
2013-07-22 00:25:00,69.2,69.2,29.85,NNE,22,0.0,0.0,100,0.04,,CLR,0.00,VWS V14.01,2013-07-22 05:25:00,
2013-07-22 00:29:00,69.0,69.0,29.85,NNE,22,0.0,0.0,100,0.04,,-RA,0.00,VWS V14.01,2013-07-22 05:29:00,
2013-07-22 00:30:00,69.2,69.2,29.85,NNE,22,0.0,0.0,100,0.04,,CLR,0.00,VWS V14.01,2013-07-22 05:30:00,
2013-07-22 00:34:00,69.0,69.0,29.85,NNE,22,0.0,0.0,100,0.00,,-RA,0.00,VWS V14.01,2013-07-22 05:34:00,
2013-07-22 00:35:00,69.0,69.0,29.85,NNE,22,0.0,0.0,100,0.04,,CLR,0.00,VWS V14.01,2013-07-22 05:35:00,
2013-07-22 00:39:00,69.0,69.0,29.85,NNE,22,0.0,0.0,100,0.00,,-RA,0.00,VWS V14.01,2013-07-22 05:39:00,
2013-07-22 00:40:00,69.0,69.0,29.85,NNE,22,0.0,0.0,100,0.04,,CLR,0.00,VWS V14.01,2013-07-22 05:40:00,
2013-07-22 00:44:00,69.0,69.0,29.88,NNE,22,0.0,0.0,100,0.00,,-RA,0.00,VWS V14.01,2013-07-22 05:44:00,
2013-07-22 00:45:00,69.0,69.0,29.85,NNE,22,0.0,0.0,100,0.00,,CLR,0.00,VWS V14.01,2013-07-22 05:45:00,
2013-07-22 00:49:00,68.8,68.8,29.88,NNE,22,0.0,0.0,100,0.00,,-RA,0.00,VWS V14.01,2013-07-22 05:49:00,
2013-07-22 00:50:00,69.0,69.0,29.85,NNE,22,0.0,0.0,100,0.00,,CLR,0.00,VWS V14.01,2013-07-22 05:50:00,
2013-07-22 00:54:00,68.8,68.8,29.88,NNE,22,0.0,0.0,100,0.00,,-RA,0.00,VWS V14.01,2013-07-22 05:54:00,
2013-07-22 00:55:00,68.8,68.8,29.88,NNE,22,0.0,0.0,100,0.00,,CLR,0.00,VWS V14.01,2013-07-22 05:55:00,
2013-07-22 01:00:00,68.6,68.6,29.88,NNE,22,0.0,0.0,100,0.00,,-RA,0.00,VWS V14.01,2013-07-22 06:00:00,
2013-07-22 01:05:00,68.8,68.8,29.88,NNE,22,0.0,0.0,100,0.00,,SCT006,0.00,VWS V14.01,2013-07-22 06:05:00,
2013-07-22 01:10:00,68.6,68.6,29.88,NNE,22,0.0,0.0,100,0.00,,SCT006,0.00,VWS V14.01,2013-07-22 06:10:00,
2013-07-22 01:15:00,68.6,68.6,29.88,NNE,22,0.0,0.0,100,0.00,,SCT006,0.00,VWS V14.01,2013-07-22 06:15:00,
2013-07-22 01:20:00,68.4,68.4,29.88,NNE,22,0.0,0.0,100,0.00,,SCT006,0.00,VWS V14.01,2013-07-22 06:20:00,
2013-07-22 01:25:00,68.4,68.4,29.88,NNE,22,0.0,0.0,100,0.00,,SCT006,0.00,VWS V14.01,2013-07-22 06:25:00,
2013-07-22 01:30:00,68.4,68.4,29.85,NNE,22,0.0,0.0,100,0.00,,SCT006,0.00,VWS V14.01,2013-07-22 06:30:00,
2013-07-22 01:35:00,68.4,68.4,29.85,NNE,22,0.0,0.0,100,0.00,,SCT006,0.00,VWS V14.01,2013-07-22 06:35:00,
2013-07-22 01:40:00,68.4,68.4,29.85,NNE,22,0.0,0.0,100,0.00,,SCT006,0.00,VWS V14.01,2013-07-22 06:40:00,
2013-07-22 01:45:00,68.4,68.4,29.85,NNE,22,0.0,0.0,100,0.00,,SCT006,0.00,VWS V14.01,2013-07-22 06:45:00,
2013-07-22 01:50:00,68.4,68.4,29.85,NNE,22,0.0,0.0,100,0.00,,SCT006,0.00,VWS V14.01,2013-07-22 06:50:00,
2013-07-22 01:55:00,68.4,68.4,29.85,NNE,22,0.0,0.0,100,0.00,,SCT006,0.00,VWS V14.01,2013-07-22 06:55:00,
2013-07-22 02:00:00,68.4,68.4,29.85,NNE,22,0.0,0.0,100,0.00,,CLR,0.00,VWS V14.01,2013-07-22 07:00:00,
2013-07-22 02:01:00,68.4,68.4,29.85,NNE,22,0.0,0.0,100,0.00,,OVC120,0.00,VWS V14.01,2013-07-22 07:01:00,
2013-07-22 02:05:00,68.4,68.4,29.85,NNE,22,0.0,0.0,100,0.00,,CLR,0.00,VWS V14.01,2013-07-22 07:05:00,
2013-07-22 02:06:00,68.4,68.4,29.85,NNE,22,0.0,0.0,100,0.00,,OVC120,0.00,VWS V14.01,2013-07-22 07:06:00,
2013-07-22 02:10:00,68.4,68.4,29.85,NNE,22,0.0,0.0,100,0.00,,CLR,0.00,VWS V14.01,2013-07-22 07:10:00,
2013-07-22 02:11:00,68.4,68.4,29.85,NNE,22,0.0,0.0,100,0.00,,OVC120,0.00,VWS V14.01,2013-07-22 07:11:00,
2013-07-22 02:15:00,68.4,68.4,29.85,NNE,22,0.0,0.0,100,0.00,,CLR,0.00,VWS V14.01,2013-07-22 07:15:00,
2013-07-22 02:16:00,68.4,68.4,29.82,NNE,22,0.0,0.0,100,0.00,,OVC120,0.00,VWS V14.01,2013-07-22 07:16:00,
2013-07-22 02:20:00,68.4,68.4,29.85,NNE,22,0.0,0.0,100,0.00,,CLR,0.00,VWS V14.01,2013-07-22 07:20:00,
2013-07-22 02:21:00,68.4,68.4,29.82,NNE,22,0.0,0.0,100,0.00,,OVC120,0.00,VWS V14.01,2013-07-22 07:21:00,
2013-07-22 02:25:00,68.4,68.4,29.82,NNE,22,0.0,0.0,100,0.00,,CLR,0.00,VWS V14.01,2013-07-22 07:25:00,
2013-07-22 02:26:00,68.3,68.3,29.82,NNE,22,0.0,0.0,100,0.00,,OVC120,0.00,VWS V14.01,2013-07-22 07:26:00,
2013-07-22 02:30:00,68.4,68.4,29.82,NNE,22,0.0,0.0,100,0.00,,CLR,0.00,VWS V14.01,2013-07-22 07:30:00,
2013-07-22 02:31:00,68.3,68.3,29.82,NNE,22,0.0,0.0,100,0.00,,OVC120,0.00,VWS V14.01,2013-07-22 07:31:00,
2013-07-22 02:35:00,68.3,68.3,29.82,NNE,22,0.0,0.0,100,0.00,,CLR,0.00,VWS V14.01,2013-07-22 07:35:00,
2013-07-22 02:36:00,68.3,68.3,29.82,NNE,22,0.0,0.0,100,0.00,,OVC120,0.00,VWS V14.01,2013-07-22 07:36:00,
2013-07-22 02:40:00,68.3,68.3,29.82,NNE,22,0.0,0.0,100,0.00,,CLR,0.00,VWS V14.01,2013-07-22 07:40:00,
2013-07-22 02:41:00,68.3,68.3,29.82,NNE,22,0.0,0.0,100,0.00,,OVC120,0.00,VWS V14.01,2013-07-22 07:41:00,
2013-07-22 02:45:00,68.3,68.3,29.82,NNE,22,0.0,0.0,100,0.00,,CLR,0.00,VWS V14.01,2013-07-22 07:45:00,
2013-07-22 02:46:00,68.3,68.3,29.85,NNE,22,0.0,0.0,100,0.00,,OVC120,0.00,VWS V14.01,2013-07-22 07:46:00,
2013-07-22 02:50:00,68.3,68.3,29.82,NNE,22,0.0,0.0,100,0.00,,CLR,0.00,VWS V14.01,2013-07-22 07:50:00,
2013-07-22 02:51:00,68.3,68.3,29.85,NNE,22,0.0,0.0,100,0.00,,OVC120,0.00,VWS V14.01,2013-07-22 07:51:00,
2013-07-22 02:55:00,68.3,68.3,29.85,NNE,22,0.0,0.0,100,0.00,,CLR,0.00,VWS V14.01,2013-07-22 07:55:00,
2013-07-22 02:56:00,68.1,68.1,29.85,NNE,22,0.0,0.0,100,0.00,,OVC120,0.00,VWS V14.01,2013-07-22 07:56:00,
2013-07-22 03:00:00,68.3,68.3,29.85,NNE,22,0.0,0.0,100,0.00,,CLR,0.00,VWS V14.01,2013-07-22 08:00:00,
2013-07-22 03:02:00,68.1,68.1,29.85,NNE,22,0.0,0.0,100,0.00,,OVC090,0.00,VWS V14.01,2013-07-22 08:02:00,
2013-07-22 03:05:00,68.1,68.1,29.85,NNE,22,0.0,0.0,100,0.00,,CLR,0.00,VWS V14.01,2013-07-22 08:05:00,
2013-07-22 03:07:00,68.1,68.1,29.85,NNE,22,0.0,0.0,100,0.00,,OVC090,0.00,VWS V14.01,2013-07-22 08:07:00,
2013-07-22 03:10:00,68.1,68.1,29.85,NNE,22,0.0,0.0,100,0.00,,CLR,0.00,VWS V14.01,2013-07-22 08:10:00,
2013-07-22 03:12:00,68.1,68.1,29.85,NNE,22,0.0,0.0,100,0.00,,OVC090,0.00,VWS V14.01,2013-07-22 08:12:00,
2013-07-22 03:15:00,68.1,68.1,29.85,NNE,22,0.0,0.0,100,0.00,,CLR,0.00,VWS V14.01,2013-07-22 08:15:00,
2013-07-22 03:17:00,67.9,67.9,29.85,NNE,22,0.0,0.0,100,0.00,,OVC090,0.00,VWS V14.01,2013-07-22 08:17:00,
2013-07-22 03:20:00,68.1,68.1,29.85,NNE,22,0.0,0.0,100,0.00,,CLR,0.00,VWS V14.01,2013-07-22 08:20:00,
2013-07-22 03:22:00,67.9,67.9,29.85,NNE,22,0.0,0.0,100,0.00,,OVC090,0.00,VWS V14.01,2013-07-22 08:22:00,
2013-07-22 03:25:00,67.9,67.9,29.85,NNE,22,0.0,0.0,100,0.00,,CLR,0.00,VWS V14.01,2013-07-22 08:25:00,
2013-07-22 03:27:00,67.7,67.7,29.85,NNE,22,0.0,0.0,100,0.00,,OVC090,0.00,VWS V14.01,2013-07-22 08:27:00,
2013-07-22 03:30:00,67.9,67.9,29.85,NNE,22,0.0,0.0,100,0.00,,CLR,0.00,VWS V14.01,2013-07-22 08:30:00,
2013-07-22 03:32:00,67.9,67.9,29.85,NNE,22,0.0,0.0,100,0.00,,OVC090,0.00,VWS V14.01,2013-07-22 08:32:00,
2013-07-22 03:35:00,67.9,67.9,29.85,NNE,22,0.0,0.0,100,0.00,,OVC008,0.00,VWS V14.01,2013-07-22 08:35:00,
2013-07-22 03:37:00,67.7,67.7,29.85,NNE,22,0.0,0.0,100,0.00,,OVC090,0.00,VWS V14.01,2013-07-22 08:37:00,
2013-07-22 03:40:00,67.7,67.7,29.85,NNE,22,0.0,0.0,100,0.00,,CLR,0.00,VWS V14.01,2013-07-22 08:40:00,
2013-07-22 03:43:00,67.7,67.7,29.85,NNE,22,0.0,0.0,100,0.00,,OVC090,0.00,VWS V14.01,2013-07-22 08:43:00,
2013-07-22 03:45:00,67.7,67.7,29.85,NNE,22,0.0,0.0,100,0.00,,CLR,0.00,VWS V14.01,2013-07-22 08:45:00,
2013-07-22 03:48:00,67.7,67.7,29.85,NNE,22,0.0,0.0,100,0.00,,OVC090,0.00,VWS V14.01,2013-07-22 08:48:00,
2013-07-22 03:50:00,67.7,67.7,29.85,NNE,22,0.0,0.0,100,0.00,,OVC008,0.00,VWS V14.01,2013-07-22 08:50:00,
2013-07-22 03:53:00,67.5,67.5,29.85,NNE,22,0.0,0.0,100,0.00,,OVC090,0.00,VWS V14.01,2013-07-22 08:53:00,
2013-07-22 03:55:00,67.7,67.7,29.85,NNE,22,0.0,0.0,100,0.00,,OVC008,0.00,VWS V14.01,2013-07-22 08:55:00,
2013-07-22 03:58:00,67.5,67.5,29.85,NNE,22,0.0,0.0,100,0.00,,OVC090,0.00,VWS V14.01,2013-07-22 08:58:00,
2013-07-22 04:00:00,67.7,67.7,29.85,NNE,22,0.0,0.0,100,0.00,,CLR,0.00,VWS V14.01,2013-07-22 09:00:00,
2013-07-22 04:03:00,67.5,67.5,29.85,NNE,22,0.0,0.0,100,0.00,,OVC100,0.00,VWS V14.01,2013-07-22 09:03:00,
2013-07-22 04:05:00,67.5,67.5,29.85,NNE,22,0.0,0.0,100,0.00,,CLR,0.00,VWS V14.01,2013-07-22 09:05:00,
2013-07-22 04:08:00,67.4,67.4,29.85,NNE,22,0.0,0.0,100,0.00,,OVC100,0.00,VWS V14.01,2013-07-22 09:08:00,
2013-07-22 04:10:00,67.5,67.5,29.85,NNE,22,0.0,0.0,100,0.00,,CLR,0.00,VWS V14.01,2013-07-22 09:10:00,
2013-07-22 04:13:00,67.4,67.4,29.85,NNE,22,0.0,0.0,100,0.00,,OVC100,0.00,VWS V14.01,2013-07-22 09:13:00,
2013-07-22 04:15:00,67.4,67.4,29.85,NNE,22,0.0,0.0,100,0.00,,OVC008,0.00,VWS V14.01,2013-07-22 09:15:00,
2013-07-22 04:19:00,67.4,67.4,29.85,NNE,22,0.0,0.0,100,0.00,,OVC100,0.00,VWS V14.01,2013-07-22 09:19:00,
2013-07-22 04:20:00,67.4,67.4,29.85,NNE,22,0.0,0.0,100,0.00,,OVC008,0.00,VWS V14.01,2013-07-22 09:20:00,
2013-07-22 04:24:00,67.2,67.2,29.85,NNE,22,0.0,0.0,100,0.00,,OVC100,0.00,VWS V14.01,2013-07-22 09:24:00,
2013-07-22 04:25:00,67.4,67.4,29.85,NNE,22,0.0,0.0,100,0.00,,CLR,0.00,VWS V14.01,2013-07-22 09:25:00,
2013-07-22 04:29:00,67.2,67.2,29.85,NNE,22,0.0,0.0,100,0.00,,OVC100,0.00,VWS V14.01,2013-07-22 09:29:00,
2013-07-22 04:30:00,67.4,67.4,29.85,NNE,22,0.0,0.0,100,0.00,,CLR,0.00,VWS V14.01,2013-07-22 09:30:00,
2013-07-22 04:34:00,67.2,67.2,29.85,NNE,22,0.0,0.0,100,0.00,,OVC100,0.00,VWS V14.01,2013-07-22 09:34:00,
2013-07-22 04:35:00,67.2,67.2,29.85,NNE,22,0.0,0.0,100,0.00,,CLR,0.00,VWS V14.01,2013-07-22 09:35:00,
2013-07-22 04:39:00,67.2,67.2,29.85,NNE,22,0.0,0.0,100,0.00,,OVC100,0.00,VWS V14.01,2013-07-22 09:39:00,
2013-07-22 04:40:00,67.2,67.2,29.85,NNE,22,0.0,0.0,100,0.00,,CLR,0.00,VWS V14.01,2013-07-22 09:40:00,
2013-07-22 04:44:00,67.0,67.0,29.85,NNE,22,0.0,0.0,100,0.00,,OVC100,0.00,VWS V14.01,2013-07-22 09:44:00,
2013-07-22 04:45:00,67.2,67.2,29.85,NNE,22,0.0,0.0,100,0.00,,CLR,0.00,VWS V14.01,2013-07-22 09:45:00,
2013-07-22 04:49:00,67.0,67.0,29.85,NNE,22,0.0,0.0,100,0.00,,OVC100,0.00,VWS V14.01,2013-07-22 09:49:00,
2013-07-22 04:50:00,67.0,67.0,29.85,NNE,22,0.0,0.0,100,0.00,,CLR,0.00,VWS V14.01,2013-07-22 09:50:00,
2013-07-22 04:54:00,67.0,67.0,29.85,NNE,22,0.0,0.0,100,0.00,,OVC100,0.00,VWS V14.01,2013-07-22 09:54:00,
2013-07-22 04:55:00,67.0,67.0,29.85,NNE,22,0.0,0.0,100,0.00,,CLR,0.00,VWS V14.01,2013-07-22 09:55:00,
2013-07-22 04:56:00,66.8,66.8,29.85,NNE,22,0.0,0.0,100,0.00,,OVC100,0.00,VWS V14.01,2013-07-22 09:56:00,
2013-07-22 05:00:00,67.0,67.0,29.85,NNE,22,0.0,0.0,100,0.00,,CLR,0.00,VWS V14.01,2013-07-22 10:00:00,
2013-07-22 05:01:00,66.8,66.8,29.85,NNE,22,0.0,0.0,100,0.00,,CLR,0.00,VWS V14.01,2013-07-22 10:01:00,
2013-07-22 05:05:00,66.8,66.8,29.85,NNE,22,0.0,0.0,100,0.00,,CLR,0.00,VWS V14.01,2013-07-22 10:05:00,
2013-07-22 05:06:00,66.8,66.8,29.85,NNE,22,0.0,0.0,100,0.00,,CLR,0.00,VWS V14.01,2013-07-22 10:06:00,
2013-07-22 05:10:00,66.8,66.8,29.85,NNE,22,0.0,0.0,100,0.00,,CLR,0.00,VWS V14.01,2013-07-22 10:10:00,
2013-07-22 05:11:00,66.8,66.8,29.85,NNE,22,0.0,0.0,100,0.00,,CLR,0.00,VWS V14.01,2013-07-22 10:11:00,
2013-07-22 05:15:00,66.8,66.8,29.85,NNE,22,0.0,0.0,100,0.00,,CLR,0.00,VWS V14.01,2013-07-22 10:15:00,
2013-07-22 05:16:00,66.8,66.8,29.85,NNE,22,0.0,0.0,100,0.00,,CLR,0.00,VWS V14.01,2013-07-22 10:16:00,
2013-07-22 05:20:00,66.8,66.8,29.85,NNE,22,0.0,0.0,100,0.00,,CLR,0.00,VWS V14.01,2013-07-22 10:20:00,
2013-07-22 05:21:00,66.8,66.8,29.85,NNE,22,0.0,0.0,100,0.00,,CLR,0.00,VWS V14.01,2013-07-22 10:21:00,
2013-07-22 05:25:00,66.8,66.8,29.85,NNE,22,0.0,0.0,100,0.00,,CLR,0.00,VWS V14.01,2013-07-22 10:25:00,
2013-07-22 05:26:00,66.8,66.8,29.85,NNE,22,0.0,0.0,100,0.00,,CLR,0.00,VWS V14.01,2013-07-22 10:26:00,
2013-07-22 05:30:00,66.8,66.8,29.85,NNE,22,0.0,0.0,100,0.00,,CLR,0.00,VWS V14.01,2013-07-22 10:30:00,
2013-07-22 05:32:00,66.6,66.6,29.85,NNE,22,0.0,0.0,100,0.00,,CLR,0.00,VWS V14.01,2013-07-22 10:32:00,
2013-07-22 05:35:00,66.8,66.8,29.85,NNE,22,0.0,0.0,100,0.00,,CLR,0.00,VWS V14.01,2013-07-22 10:35:00,
2013-07-22 05:37:00,66.6,66.6,29.85,NNE,22,0.0,0.0,100,0.00,,CLR,0.00,VWS V14.01,2013-07-22 10:37:00,
2013-07-22 05:40:00,66.6,66.6,29.85,NNE,22,0.0,0.0,100,0.00,,CLR,0.00,VWS V14.01,2013-07-22 10:40:00,
2013-07-22 05:42:00,66.6,66.6,29.85,NNE,22,0.0,0.0,100,0.00,,CLR,0.00,VWS V14.01,2013-07-22 10:42:00,
2013-07-22 05:45:00,66.6,66.6,29.85,NNE,22,0.0,0.0,100,0.00,,CLR,0.00,VWS V14.01,2013-07-22 10:45:00,
2013-07-22 05:47:00,66.6,66.6,29.85,NNE,22,0.0,0.0,100,0.00,,CLR,0.00,VWS V14.01,2013-07-22 10:47:00,
2013-07-22 05:50:00,66.6,66.6,29.85,NNE,22,0.0,0.0,100,0.00,,CLR,0.00,VWS V14.01,2013-07-22 10:50:00,
2013-07-22 05:52:00,66.6,66.6,29.85,NNE,22,0.0,0.0,100,0.00,,CLR,0.00,VWS V14.01,2013-07-22 10:52:00,
2013-07-22 05:55:00,66.6,66.6,29.85,NNE,22,0.0,0.0,100,0.00,,CLR,0.00,VWS V14.01,2013-07-22 10:55:00,
2013-07-22 05:57:00,66.5,66.5,29.85,NNE,22,0.0,0.0,100,0.00,,CLR,0.00,VWS V14.01,2013-07-22 10:57:00,
2013-07-22 06:00:00,66.5,66.5,29.85,NNE,22,0.0,0.0,100,0.00,,CLR,0.00,VWS V14.01,2013-07-22 11:00:00,
2013-07-22 06:02:00,66.5,66.5,29.85,NNE,22,0.0,0.0,100,0.00,,,0.00,VWS V14.01,2013-07-22 11:02:00,
2013-07-22 06:05:00,66.5,66.5,29.85,NNE,22,0.0,0.0,100,0.00,,CLR,0.00,VWS V14.01,2013-07-22 11:05:00,
2013-07-22 06:07:00,66.5,66.5,29.85,NNE,22,0.0,0.0,100,0.00,,,0.00,VWS V14.01,2013-07-22 11:07:00,
2013-07-22 06:10:00,66.5,66.5,29.85,NNE,22,0.0,0.0,100,0.00,,CLR,0.00,VWS V14.01,2013-07-22 11:10:00,
2013-07-22 06:12:00,66.5,66.5,29.85,NNE,22,0.0,0.0,100,0.00,,,0.00,VWS V14.01,2013-07-22 11:12:00,
2013-07-22 06:15:00,66.5,66.5,29.85,NNE,22,0.0,0.0,100,0.00,,CLR,0.00,VWS V14.01,2013-07-22 11:15:00,
2013-07-22 06:17:00,66.5,66.5,29.85,NNE,22,0.0,0.0,100,0.00,,,0.00,VWS V14.01,2013-07-22 11:17:00,
2013-07-22 06:20:00,66.5,66.5,29.85,NNE,22,0.0,0.0,100,0.00,,CLR,0.00,VWS V14.01,2013-07-22 11:20:00,
2013-07-22 06:22:00,66.5,66.5,29.85,NNE,22,0.0,0.0,100,0.00,,,0.00,VWS V14.01,2013-07-22 11:22:00,
2013-07-22 06:25:00,66.5,66.5,29.85,NNE,22,0.0,0.0,100,0.00,,CLR,0.00,VWS V14.01,2013-07-22 11:25:00,
2013-07-22 06:27:00,66.3,66.3,29.85,NNE,22,0.0,0.0,100,0.00,,,0.00,VWS V14.01,2013-07-22 11:27:00,
2013-07-22 06:30:00,66.5,66.5,29.85,NNE,22,0.0,0.0,100,0.00,,CLR,0.00,VWS V14.01,2013-07-22 11:30:00,
2013-07-22 06:32:00,66.3,66.3,29.85,NNE,22,0.0,0.0,100,0.00,,,0.00,VWS V14.01,2013-07-22 11:32:00,
2013-07-22 06:35:00,66.3,66.3,29.85,NNE,22,0.0,0.0,100,0.00,,CLR,0.00,VWS V14.01,2013-07-22 11:35:00,
2013-07-22 06:37:00,66.3,66.3,29.85,NNE,22,0.0,0.0,100,0.00,,,0.00,VWS V14.01,2013-07-22 11:37:00,
2013-07-22 06:40:00,66.3,66.3,29.85,NNE,22,0.0,0.0,100,0.00,,CLR,0.00,VWS V14.01,2013-07-22 11:40:00,
2013-07-22 06:43:00,66.5,66.5,29.85,NNE,22,0.0,0.0,100,0.00,,,0.00,VWS V14.01,2013-07-22 11:43:00,
2013-07-22 06:45:00,66.3,66.3,29.85,NNE,22,0.0,0.0,100,0.00,,CLR,0.00,VWS V14.01,2013-07-22 11:45:00,
2013-07-22 06:48:00,66.5,66.5,29.85,NNE,22,0.0,0.0,100,0.00,,,0.00,VWS V14.01,2013-07-22 11:48:00,
2013-07-22 06:50:00,66.3,66.3,29.85,NNE,22,0.0,0.0,100,0.00,,CLR,0.00,VWS V14.01,2013-07-22 11:50:00,
2013-07-22 06:53:00,66.5,66.5,29.85,NNE,22,0.0,0.0,100,0.00,,,0.00,VWS V14.01,2013-07-22 11:53:00,
2013-07-22 06:55:00,66.5,66.5,29.85,NNE,22,0.0,0.0,100,0.00,,CLR,0.00,VWS V14.01,2013-07-22 11:55:00,
2013-07-22 06:58:00,66.5,66.5,29.88,NNE,22,0.0,0.0,100,0.00,,,0.00,VWS V14.01,2013-07-22 11:58:00,
2013-07-22 07:00:00,66.5,66.5,29.85,NNE,22,0.0,0.0,100,0.00,,CLR,0.00,VWS V14.01,2013-07-22 12:00:00,
2013-07-22 07:03:00,66.6,66.6,29.88,NNE,22,0.0,0.0,100,0.00,,,0.00,VWS V14.01,2013-07-22 12:03:00,
2013-07-22 07:05:00,66.5,66.5,29.85,NNE,22,0.0,0.0,100,0.00,,CLR,0.00,VWS V14.01,2013-07-22 12:05:00,
2013-07-22 07:08:00,66.6,66.6,29.88,NNE,22,0.0,0.0,100,0.00,,,0.00,VWS V14.01,2013-07-22 12:08:00,
2013-07-22 07:10:00,66.5,66.5,29.88,NNE,22,0.0,0.0,100,0.00,,CLR,0.00,VWS V14.01,2013-07-22 12:10:00,
2013-07-22 07:13:00,66.8,66.8,29.88,NNE,22,0.0,0.0,100,0.00,,,0.00,VWS V14.01,2013-07-22 12:13:00,
2013-07-22 07:15:00,66.6,66.6,29.88,NNE,22,0.0,0.0,100,0.00,,CLR,0.00,VWS V14.01,2013-07-22 12:15:00,
2013-07-22 07:18:00,66.8,66.8,29.88,NNE,22,0.0,0.0,100,0.00,,,0.00,VWS V14.01,2013-07-22 12:18:00,
2013-07-22 07:20:00,66.6,66.6,29.88,NNE,22,0.0,0.0,100,0.00,,CLR,0.00,VWS V14.01,2013-07-22 12:20:00,
2013-07-22 07:23:00,67.0,67.0,29.88,NNE,22,0.0,0.0,100,0.00,,,0.00,VWS V14.01,2013-07-22 12:23:00,
2013-07-22 07:25:00,66.8,66.8,29.88,NNE,22,0.0,0.0,100,0.00,,CLR,0.00,VWS V14.01,2013-07-22 12:25:00,
2013-07-22 07:28:00,67.2,67.2,29.85,NNE,22,0.0,0.0,100,0.00,,,0.00,VWS V14.01,2013-07-22 12:28:00,
2013-07-22 07:30:00,67.0,67.0,29.88,NNE,22,0.0,0.0,100,0.00,,CLR,0.00,VWS V14.01,2013-07-22 12:30:00,
2013-07-22 07:34:00,67.4,67.4,29.85,NNE,22,0.0,0.0,100,0.00,,,0.00,VWS V14.01,2013-07-22 12:34:00,
2013-07-22 07:35:00,67.0,67.0,29.88,NNE,22,0.0,0.0,100,0.00,,CLR,0.00,VWS V14.01,2013-07-22 12:35:00,
2013-07-22 07:39:00,67.5,67.5,29.85,NNE,22,0.0,0.0,100,0.00,,,0.00,VWS V14.01,2013-07-22 12:39:00,
2013-07-22 07:40:00,67.2,67.2,29.85,NNE,22,0.0,0.0,100,0.00,,CLR,0.00,VWS V14.01,2013-07-22 12:40:00,
2013-07-22 07:44:00,67.5,67.5,29.88,NNE,22,0.0,0.0,100,0.00,,,0.00,VWS V14.01,2013-07-22 12:44:00,
2013-07-22 07:45:00,67.4,67.4,29.85,NNE,22,0.0,0.0,100,0.00,,OVC006,0.00,VWS V14.01,2013-07-22 12:45:00,
2013-07-22 07:49:00,67.7,67.7,29.88,NNE,22,0.0,0.0,100,0.00,,,0.00,VWS V14.01,2013-07-22 12:49:00,
2013-07-22 07:50:00,67.5,67.5,29.85,NNE,22,0.0,0.0,100,0.00,,CLR,0.00,VWS V14.01,2013-07-22 12:50:00,
2013-07-22 07:54:00,67.9,67.9,29.88,NNE,22,0.0,0.0,100,0.00,,,0.00,VWS V14.01,2013-07-22 12:54:00,
2013-07-22 07:55:00,67.7,67.7,29.88,NNE,22,0.0,0.0,100,0.00,,CLR,0.00,VWS V14.01,2013-07-22 12:55:00,
2013-07-22 07:59:00,68.4,68.4,29.85,NNE,22,0.0,0.0,100,0.00,,,0.00,VWS V14.01,2013-07-22 12:59:00,
2013-07-22 08:00:00,67.9,67.9,29.88,NNE,22,0.0,0.0,100,0.00,,CLR,0.00,VWS V14.01,2013-07-22 13:00:00,
2013-07-22 08:04:00,68.6,68.6,29.85,NNE,22,0.0,0.0,100,0.00,,CLR,0.00,VWS V14.01,2013-07-22 13:04:00,
2013-07-22 08:05:00,68.1,68.1,29.88,NNE,22,0.0,0.0,100,0.00,,CLR,0.00,VWS V14.01,2013-07-22 13:05:00,
2013-07-22 08:09:00,69.3,69.3,29.85,NNE,22,0.0,0.0,100,0.00,,CLR,0.00,VWS V14.01,2013-07-22 13:09:00,
2013-07-22 08:10:00,68.4,68.4,29.85,NNE,22,0.0,0.0,100,0.00,,CLR,0.00,VWS V14.01,2013-07-22 13:10:00,
2013-07-22 08:14:00,69.9,69.9,29.85,NNE,22,0.0,0.0,100,0.00,,CLR,0.00,VWS V14.01,2013-07-22 13:14:00,
2013-07-22 08:15:00,68.8,68.8,29.85,NNE,22,0.0,0.0,100,0.00,,OVC006,0.00,VWS V14.01,2013-07-22 13:15:00,
2013-07-22 08:19:00,69.9,69.9,29.85,NNE,22,0.0,0.0,100,0.00,,CLR,0.00,VWS V14.01,2013-07-22 13:19:00,
2013-07-22 08:20:00,69.3,69.3,29.85,NNE,22,0.0,0.0,100,0.00,,CLR,0.00,VWS V14.01,2013-07-22 13:20:00,
2013-07-22 08:24:00,70.1,70.1,29.85,NNE,22,0.0,0.0,100,0.00,,CLR,0.00,VWS V14.01,2013-07-22 13:24:00,
2013-07-22 08:25:00,69.9,69.9,29.85,NNE,22,0.0,0.0,100,0.00,,CLR,0.00,VWS V14.01,2013-07-22 13:25:00,
2013-07-22 08:30:00,70.1,70.1,29.85,NNE,22,0.0,0.0,100,0.00,,CLR,0.00,VWS V14.01,2013-07-22 13:30:00,
2013-07-22 08:35:00,70.2,70.2,29.85,NNE,22,0.0,0.0,100,0.00,,CLR,0.00,VWS V14.01,2013-07-22 13:35:00,
2013-07-22 08:40:00,70.4,70.4,29.85,NNE,22,0.0,0.0,100,0.00,,CLR,0.00,VWS V14.01,2013-07-22 13:40:00,
2013-07-22 08:45:00,70.6,70.6,29.85,NNE,22,0.0,0.0,100,0.00,,CLR,0.00,VWS V14.01,2013-07-22 13:45:00,
2013-07-22 08:50:00,70.8,70.8,29.85,NNE,22,0.0,0.0,100,0.00,,CLR,0.00,VWS V14.01,2013-07-22 13:50:00,
2013-07-22 08:55:00,71.0,71.0,29.85,NNE,22,0.0,0.0,100,0.00,,CLR,0.00,VWS V14.01,2013-07-22 13:55:00,
2013-07-22 09:00:00,71.1,71.1,29.85,NNE,22,0.0,0.0,100,0.00,,CLR,0.00,VWS V14.01,2013-07-22 14:00:00,
2013-07-22 09:05:00,71.3,71.3,29.85,NNE,22,0.0,0.0,100,0.00,,CLR,0.00,VWS V14.01,2013-07-22 14:05:00,
2013-07-22 09:10:00,71.5,71.5,29.85,NNE,22,0.0,0.0,100,0.00,,CLR,0.00,VWS V14.01,2013-07-22 14:10:00,
2013-07-22 09:15:00,71.9,71.9,29.82,NNE,22,0.0,0.0,100,0.00,,CLR,0.00,VWS V14.01,2013-07-22 14:15:00,
2013-07-22 09:20:00,72.0,72.0,29.82,NNE,22,0.0,0.0,100,0.00,,CLR,0.00,VWS V14.01,2013-07-22 14:20:00,
2013-07-22 09:25:00,71.9,71.9,29.82,NNE,22,0.0,0.0,100,0.00,,CLR,0.00,VWS V14.01,2013-07-22 14:25:00,
2013-07-22 09:26:00,72.2,72.2,29.82,NNE,22,0.0,0.0,100,0.00,,CLR,0.00,VWS V14.01,2013-07-22 14:26:00,
2013-07-22 09:30:00,72.0,72.0,29.82,NNE,22,0.0,0.0,100,0.00,,CLR,0.00,VWS V14.01,2013-07-22 14:30:00,
2013-07-22 09:31:00,72.6,72.6,29.85,NNE,22,0.0,0.0,100,0.00,,CLR,0.00,VWS V14.01,2013-07-22 14:31:00,
2013-07-22 09:35:00,72.2,72.2,29.82,NNE,22,0.0,0.0,100,0.00,,CLR,0.00,VWS V14.01,2013-07-22 14:35:00,
2013-07-22 09:36:00,72.9,72.9,29.85,NNE,22,0.0,0.0,100,0.00,,CLR,0.00,VWS V14.01,2013-07-22 14:36:00,
2013-07-22 09:40:00,72.6,72.6,29.85,NNE,22,0.0,0.0,100,0.00,,CLR,0.00,VWS V14.01,2013-07-22 14:40:00,
2013-07-22 09:41:00,73.3,73.3,29.85,NNE,22,0.0,0.0,100,0.00,,CLR,0.00,VWS V14.01,2013-07-22 14:41:00,
2013-07-22 09:45:00,72.9,72.9,29.85,NNE,22,0.0,0.0,100,0.00,,CLR,0.00,VWS V14.01,2013-07-22 14:45:00,
2013-07-22 09:46:00,73.7,73.7,29.85,NNE,22,0.0,0.0,100,0.00,,CLR,0.00,VWS V14.01,2013-07-22 14:46:00,
2013-07-22 09:50:00,73.1,73.1,29.85,NNE,22,0.0,0.0,100,0.00,,CLR,0.00,VWS V14.01,2013-07-22 14:50:00,
2013-07-22 09:51:00,74.0,74.0,29.85,NNE,22,0.0,0.0,100,0.00,,CLR,0.00,VWS V14.01,2013-07-22 14:51:00,
2013-07-22 09:55:00,73.7,73.7,29.85,NNE,22,0.0,0.0,100,0.00,,CLR,0.00,VWS V14.01,2013-07-22 14:55:00,
2013-07-22 09:56:00,74.4,74.4,29.85,NNE,22,0.0,0.0,100,0.00,,CLR,0.00,VWS V14.01,2013-07-22 14:56:00,
2013-07-22 10:00:00,74.0,74.0,29.85,NNE,22,0.0,0.0,100,0.00,,CLR,0.00,VWS V14.01,2013-07-22 15:00:00,
2013-07-22 10:01:00,74.7,74.8,29.85,NNE,22,0.0,0.0,100,0.00,,CLR,0.00,VWS V14.01,2013-07-22 15:01:00,
2013-07-22 10:05:00,74.2,74.2,29.85,NNE,22,0.0,0.0,100,0.00,,CLR,0.00,VWS V14.01,2013-07-22 15:05:00,
2013-07-22 10:06:00,75.1,75.1,29.85,NNE,22,0.0,0.0,100,0.00,,CLR,0.00,VWS V14.01,2013-07-22 15:06:00,
2013-07-22 10:10:00,74.6,74.6,29.85,NNE,22,0.0,0.0,100,0.00,,CLR,0.00,VWS V14.01,2013-07-22 15:10:00,
2013-07-22 10:11:00,75.3,75.3,29.85,NNE,22,0.0,0.0,100,0.00,,CLR,0.00,VWS V14.01,2013-07-22 15:11:00,
2013-07-22 10:15:00,74.9,74.9,29.85,NNE,22,0.0,0.0,100,0.00,,CLR,0.00,VWS V14.01,2013-07-22 15:15:00,
2013-07-22 10:17:00,75.8,75.8,29.85,NNE,22,0.0,0.0,100,0.00,,CLR,0.00,VWS V14.01,2013-07-22 15:17:00,
2013-07-22 10:20:00,75.3,75.3,29.85,NNE,22,0.0,0.0,100,0.00,,CLR,0.00,VWS V14.01,2013-07-22 15:20:00,
2013-07-22 10:22:00,76.0,76.0,29.85,NNE,22,0.0,0.0,100,0.00,,CLR,0.00,VWS V14.01,2013-07-22 15:22:00,
2013-07-22 10:25:00,75.6,75.6,29.85,NNE,22,0.0,0.0,100,0.00,,CLR,0.00,VWS V14.01,2013-07-22 15:25:00,
2013-07-22 10:27:00,76.5,76.6,29.85,NNE,22,0.0,0.0,100,0.00,,CLR,0.00,VWS V14.01,2013-07-22 15:27:00,
2013-07-22 10:30:00,76.0,76.0,29.85,NNE,22,0.0,0.0,100,0.00,,CLR,0.00,VWS V14.01,2013-07-22 15:30:00,
2013-07-22 10:32:00,76.7,76.7,29.85,NNE,22,0.0,0.0,100,0.00,,CLR,0.00,VWS V14.01,2013-07-22 15:32:00,
2013-07-22 10:35:00,76.4,76.4,29.85,NNE,22,0.0,0.0,100,0.00,,CLR,0.00,VWS V14.01,2013-07-22 15:35:00,
2013-07-22 10:37:00,76.9,76.9,29.85,NNE,22,0.0,0.0,100,0.00,,CLR,0.00,VWS V14.01,2013-07-22 15:37:00,
2013-07-22 10:40:00,76.5,76.6,29.85,NNE,22,0.0,0.0,100,0.00,,CLR,0.00,VWS V14.01,2013-07-22 15:40:00,
2013-07-22 10:42:00,77.4,77.4,29.85,NNE,22,0.0,0.0,100,0.00,,CLR,0.00,VWS V14.01,2013-07-22 15:42:00,
2013-07-22 10:45:00,76.7,76.7,29.85,NNE,22,0.0,0.0,100,0.00,,CLR,0.00,VWS V14.01,2013-07-22 15:45:00,
2013-07-22 10:47:00,77.4,76.8,29.85,NNE,22,0.0,0.0,98,0.00,,CLR,0.00,VWS V14.01,2013-07-22 15:47:00,
2013-07-22 10:50:00,77.3,77.3,29.85,NNE,22,0.0,0.0,100,0.00,,CLR,0.00,VWS V14.01,2013-07-22 15:50:00,
2013-07-22 10:52:00,77.8,77.2,29.85,NNE,22,0.0,0.0,98,0.00,,CLR,0.00,VWS V14.01,2013-07-22 15:52:00,
2013-07-22 10:55:00,77.4,77.1,29.85,NNE,22,0.0,0.0,99,0.00,,CLR,0.00,VWS V14.01,2013-07-22 15:55:00,
2013-07-22 10:57:00,78.0,77.1,29.85,NNE,22,0.0,0.0,97,0.00,,CLR,0.00,VWS V14.01,2013-07-22 15:57:00,
2013-07-22 11:00:00,77.8,77.2,29.85,NNE,22,0.0,0.0,98,0.00,,CLR,0.00,VWS V14.01,2013-07-22 16:00:00,
2013-07-22 11:02:00,78.2,77.2,29.85,NNW,338,0.0,0.0,97,0.00,,FEW022,0.00,VWS V14.01,2013-07-22 16:02:00,
2013-07-22 11:05:00,78.0,77.1,29.85,NNE,22,0.0,0.0,97,0.00,,CLR,0.00,VWS V14.01,2013-07-22 16:05:00,
2013-07-22 11:08:00,78.5,77.3,29.85,WNW,292,5.8,6.5,96,0.00,,FEW022,0.00,VWS V14.01,2013-07-22 16:08:00,
2013-07-22 11:10:00,78.2,77.2,29.85,NNW,338,4.9,5.5,97,0.00,,CLR,0.00,VWS V14.01,2013-07-22 16:10:00,
2013-07-22 11:13:00,78.9,77.7,29.85,West,270,0.0,3.0,96,0.00,,FEW022,0.00,VWS V14.01,2013-07-22 16:13:00,
2013-07-22 11:15:00,78.3,77.4,29.85,NNW,338,0.0,0.0,97,0.00,,CLR,0.00,VWS V14.01,2013-07-22 16:15:00,
2013-07-22 11:18:00,79.1,77.8,29.85,WNW,292,4.9,6.5,96,0.00,,FEW022,0.00,VWS V14.01,2013-07-22 16:18:00,
2013-07-22 11:20:00,78.5,77.3,29.85,West,270,4.9,6.0,96,0.00,,CLR,0.00,VWS V14.01,2013-07-22 16:20:00,
2013-07-22 11:23:00,79.2,77.7,29.85,WNW,292,0.0,0.0,95,0.00,,FEW022,0.00,VWS V14.01,2013-07-22 16:23:00,
2013-07-22 11:25:00,79.1,77.8,29.85,West,270,0.0,0.0,96,0.00,,CLR,0.00,VWS V14.01,2013-07-22 16:25:00,
2013-07-22 11:28:00,79.6,78.1,29.82,West,270,0.0,0.0,95,0.00,,FEW022,0.00,VWS V14.01,2013-07-22 16:28:00,
2013-07-22 11:30:00,79.1,77.5,29.85,WNW,292,0.0,0.0,95,0.00,,CLR,0.00,VWS V14.01,2013-07-22 16:30:00,
2013-07-22 11:33:00,79.8,78.2,29.82,WSW,248,2.2,4.5,95,0.00,,FEW022,0.00,VWS V14.01,2013-07-22 16:33:00,
2013-07-22 11:35:00,79.2,77.7,29.85,WNW,292,0.0,0.0,95,0.00,,CLR,0.00,VWS V14.01,2013-07-22 16:35:00,
2013-07-22 11:38:00,79.8,77.6,29.82,West,270,4.0,5.5,93,0.00,,FEW022,0.00,VWS V14.01,2013-07-22 16:38:00,
2013-07-22 11:40:00,79.6,78.4,29.82,WSW,248,4.0,4.5,96,0.00,,CLR,0.00,VWS V14.01,2013-07-22 16:40:00,
2013-07-22 11:43:00,79.8,77.6,29.82,West,270,2.7,4.5,93,0.00,,FEW022,0.00,VWS V14.01,2013-07-22 16:43:00,
2013-07-22 11:45:00,79.8,77.6,29.82,WNW,292,2.7,3.0,93,0.00,,CLR,0.00,VWS V14.01,2013-07-22 16:45:00,
2013-07-22 11:48:00,80.1,78.3,29.82,SW,225,4.9,5.5,94,0.00,,FEW022,0.00,VWS V14.01,2013-07-22 16:48:00,
2013-07-22 11:53:00,80.1,78.3,29.82,NE,45,0.0,3.0,94,0.00,,FEW022,0.00,VWS V14.01,2013-07-22 16:53:00,
2013-07-22 11:58:00,80.7,78.5,29.82,SW,225,1.8,5.5,93,0.00,,FEW022,0.00,VWS V14.01,2013-07-22 16:58:00,
2013-07-22 12:03:00,80.7,77.8,29.82,NW,315,2.7,3.5,91,0.00,,CLR,0.00,VWS V14.01,2013-07-22 17:03:00,
2013-07-22 12:05:00,80.7,78.1,29.85,WNW,292,5.4,6.0,92,0.00,,CLR,0.00,VWS V14.01,2013-07-22 17:05:00,
2013-07-22 12:08:00,80.7,78.1,29.82,WSW,248,2.7,5.5,92,0.00,,CLR,0.00,VWS V14.01,2013-07-22 17:08:00,
2013-07-22 12:10:00,80.9,78.0,29.82,NW,315,4.5,5.0,91,0.00,,CLR,0.00,VWS V14.01,2013-07-22 17:10:00,
2013-07-22 12:13:00,81.0,78.2,29.85,West,270,4.0,6.0,91,0.00,,CLR,0.00,VWS V14.01,2013-07-22 17:13:00,
2013-07-22 12:15:00,80.7,77.8,29.82,WNW,292,0.0,5.5,91,0.00,,CLR,0.00,VWS V14.01,2013-07-22 17:15:00,
2013-07-22 12:18:00,81.2,78.0,29.85,SW,225,0.0,3.0,90,0.00,,CLR,0.00,VWS V14.01,2013-07-22 17:18:00,
2013-07-22 12:20:00,80.9,78.0,29.82,SW,225,3.1,5.0,91,0.00,,CLR,0.00,VWS V14.01,2013-07-22 17:20:00,
2013-07-22 12:23:00,81.4,78.5,29.85,WNW,292,4.9,5.5,91,0.00,,CLR,0.00,VWS V14.01,2013-07-22 17:23:00,
2013-07-22 12:25:00,81.0,78.2,29.85,West,270,0.0,3.0,91,0.00,,CLR,0.00,VWS V14.01,2013-07-22 17:25:00,
2013-07-22 12:28:00,81.0,77.8,29.85,NW,315,2.7,4.5,90,0.00,,CLR,0.00,VWS V14.01,2013-07-22 17:28:00,
2013-07-22 12:30:00,81.4,78.5,29.85,SSW,202,0.0,0.0,91,0.00,,CLR,0.00,VWS V14.01,2013-07-22 17:30:00,
2013-07-22 12:33:00,81.4,78.2,29.85,North,0,3.1,3.5,90,0.00,,CLR,0.00,VWS V14.01,2013-07-22 17:33:00,
2013-07-22 12:35:00,81.2,77.3,29.85,WNW,292,4.5,5.5,88,0.00,,CLR,0.00,VWS V14.01,2013-07-22 17:35:00,
2013-07-22 12:38:00,81.6,78.4,29.85,NNW,338,0.0,3.0,90,0.00,,CLR,0.00,VWS V14.01,2013-07-22 17:38:00,
2013-07-22 12:40:00,81.2,78.0,29.85,North,0,4.0,5.0,90,0.00,,CLR,0.00,VWS V14.01,2013-07-22 17:40:00,
2013-07-22 12:43:00,81.6,78.4,29.85,NNW,338,3.1,5.0,90,0.00,,CLR,0.00,VWS V14.01,2013-07-22 17:43:00,
2013-07-22 12:45:00,81.4,78.2,29.85,NNW,338,2.2,2.5,90,0.00,,CLR,0.00,VWS V14.01,2013-07-22 17:45:00,
2013-07-22 12:48:00,81.6,78.4,29.85,NNW,338,2.2,3.5,90,0.00,,CLR,0.00,VWS V14.01,2013-07-22 17:48:00,
2013-07-22 12:50:00,81.6,78.4,29.85,NNW,338,4.0,4.5,90,0.00,,CLR,0.00,VWS V14.01,2013-07-22 17:50:00,
2013-07-22 12:54:00,81.6,78.4,29.85,SW,225,0.0,2.0,90,0.00,,CLR,0.00,VWS V14.01,2013-07-22 17:54:00,
2013-07-22 12:55:00,81.6,78.0,29.85,NNW,338,0.0,3.5,89,0.00,,CLR,0.00,VWS V14.01,2013-07-22 17:55:00,
2013-07-22 12:59:00,82.1,78.9,29.82,WSW,248,0.0,0.0,90,0.00,,CLR,0.00,VWS V14.01,2013-07-22 17:59:00,
2013-07-22 13:00:00,81.4,78.2,29.85,NNW,338,0.0,0.0,90,0.00,,CLR,0.00,VWS V14.01,2013-07-22 18:00:00,
2013-07-22 13:04:00,82.3,79.1,29.82,WNW,292,0.0,0.0,90,0.00,,FEW030,0.00,VWS V14.01,2013-07-22 18:04:00,
2013-07-22 13:05:00,81.9,78.7,29.85,SW,225,2.7,5.0,90,0.00,,CLR,0.00,VWS V14.01,2013-07-22 18:05:00,
2013-07-22 13:09:00,82.1,78.2,29.82,WNW,292,0.0,3.0,88,0.00,,FEW030,0.00,VWS V14.01,2013-07-22 18:09:00,
2013-07-22 13:10:00,82.1,78.9,29.82,WSW,248,2.7,3.5,90,0.00,,CLR,0.00,VWS V14.01,2013-07-22 18:10:00,
2013-07-22 13:15:00,82.1,78.2,29.82,East,90,0.0,0.0,88,0.00,,FEW030,0.00,VWS V14.01,2013-07-22 18:15:00,
2013-07-22 13:20:00,81.9,78.4,29.82,SE,135,0.0,0.0,89,0.00,,FEW030,0.00,VWS V14.01,2013-07-22 18:20:00,
2013-07-22 13:25:00,82.3,78.7,29.82,SW,225,3.1,5.0,89,0.00,,FEW030,0.00,VWS V14.01,2013-07-22 18:25:00,
2013-07-22 13:30:00,82.5,78.2,29.79,West,270,0.0,5.0,87,0.00,,FEW030,0.00,VWS V14.01,2013-07-22 18:30:00,
2013-07-22 13:35:00,82.8,78.9,29.79,East,90,2.2,2.5,88,0.00,,FEW030,0.00,VWS V14.01,2013-07-22 18:35:00,
2013-07-22 13:40:00,83.2,79.3,29.79,ENE,68,0.0,3.0,88,0.00,,FEW030,0.00,VWS V14.01,2013-07-22 18:40:00,
2013-07-22 13:45:00,83.2,78.6,29.79,ENE,68,0.0,2.0,86,0.00,,FEW030,0.00,VWS V14.01,2013-07-22 18:45:00,
2013-07-22 13:50:00,83.6,79.6,29.79,NE,45,0.0,4.5,88,0.00,,FEW030,0.00,VWS V14.01,2013-07-22 18:50:00,
2013-07-22 13:55:00,83.9,79.6,29.79,SSE,158,0.0,3.0,87,0.00,,FEW030,0.00,VWS V14.01,2013-07-22 18:55:00,
2013-07-22 14:00:00,83.7,79.8,29.79,East,90,0.0,0.0,88,0.00,,CLR,0.00,VWS V14.01,2013-07-22 19:00:00,
2013-07-22 14:05:00,83.7,79.5,29.79,NE,45,0.0,0.0,87,0.00,,CLR,0.00,VWS V14.01,2013-07-22 19:05:00,
2013-07-22 14:10:00,83.6,79.6,29.79,NE,45,0.0,3.0,88,0.00,,CLR,0.00,VWS V14.01,2013-07-22 19:10:00,
2013-07-22 14:15:00,83.6,79.6,29.79,NE,45,0.0,0.0,88,0.00,,CLR,0.00,VWS V14.01,2013-07-22 19:15:00,
2013-07-22 14:20:00,83.7,79.5,29.79,NE,45,2.7,3.0,87,0.00,,CLR,0.00,VWS V14.01,2013-07-22 19:20:00,
2013-07-22 14:25:00,83.6,79.6,29.80,NE,45,0.0,0.0,88,0.00,,CLR,0.00,VWS V14.01,2013-07-22 19:25:00,
2013-07-22 14:26:00,84.3,80.0,29.79,SW,225,0.0,4.5,87,0.00,,CLR,0.00,VWS V14.01,2013-07-22 19:26:00,
2013-07-22 14:30:00,83.7,79.5,29.80,NE,45,0.0,3.0,87,0.00,,CLR,0.00,VWS V14.01,2013-07-22 19:30:00,
2013-07-22 14:31:00,84.1,79.8,29.79,WNW,292,4.5,5.0,87,0.00,,CLR,0.00,VWS V14.01,2013-07-22 19:31:00,
2013-07-22 14:35:00,84.3,80.0,29.80,SW,225,0.0,4.5,87,0.00,,OVC006,0.00,VWS V14.01,2013-07-22 19:35:00,
2013-07-22 14:36:00,84.1,79.1,29.79,West,270,0.0,0.0,85,0.00,,CLR,0.00,VWS V14.01,2013-07-22 19:36:00,
2013-07-22 14:40:00,84.3,80.0,29.80,West,270,3.1,5.0,87,0.00,,CLR,0.00,VWS V14.01,2013-07-22 19:40:00,
2013-07-22 14:41:00,84.3,79.6,29.79,SSE,158,2.7,4.5,86,0.00,,CLR,0.00,VWS V14.01,2013-07-22 19:41:00,
2013-07-22 14:45:00,84.3,79.3,29.80,West,270,0.0,0.0,85,0.00,,CLR,0.00,VWS V14.01,2013-07-22 19:45:00,
2013-07-22 14:46:00,84.6,79.6,29.79,ENE,68,0.0,4.5,85,0.00,,CLR,0.00,VWS V14.01,2013-07-22 19:46:00,
2013-07-22 14:50:00,84.3,79.6,29.80,SSE,158,2.7,4.5,86,0.00,,OVC006,0.00,VWS V14.01,2013-07-22 19:50:00,
2013-07-22 14:51:00,84.5,79.8,29.79,East,90,2.7,3.0,86,0.00,,CLR,0.00,VWS V14.01,2013-07-22 19:51:00,
2013-07-22 14:55:00,84.5,79.8,29.80,ENE,68,0.0,5.0,86,0.00,,CLR,0.00,VWS V14.01,2013-07-22 19:55:00,
2013-07-22 14:56:00,84.6,80.3,29.79,ENE,68,0.0,3.0,87,0.00,,CLR,0.00,VWS V14.01,2013-07-22 19:56:00,
2013-07-22 15:00:00,84.5,79.8,29.80,SW,225,1.8,6.5,86,0.00,,CLR,0.00,VWS V14.01,2013-07-22 20:00:00,
2013-07-22 15:01:00,84.5,79.8,29.79,WSW,248,0.0,3.5,86,0.00,,CLR,0.00,VWS V14.01,2013-07-22 20:01:00,
2013-07-22 15:05:00,84.6,80.3,29.80,ENE,68,0.0,4.5,87,0.00,,CLR,0.00,VWS V14.01,2013-07-22 20:05:00,
2013-07-22 15:06:00,84.6,80.0,29.79,ENE,68,0.0,0.0,86,0.00,,CLR,0.00,VWS V14.01,2013-07-22 20:06:00,
2013-07-22 15:10:00,84.6,79.6,29.80,WSW,248,3.1,3.5,85,0.00,,CLR,0.00,VWS V14.01,2013-07-22 20:10:00,
2013-07-22 15:11:00,84.5,79.8,29.76,SSW,202,0.0,4.5,86,0.00,,CLR,0.00,VWS V14.01,2013-07-22 20:11:00,
2013-07-22 15:15:00,84.5,80.2,29.80,East,90,0.0,0.0,87,0.00,,CLR,0.00,VWS V14.01,2013-07-22 20:15:00,
2013-07-22 15:16:00,84.8,80.5,29.76,ESE,112,4.9,5.5,87,0.00,,CLR,0.00,VWS V14.01,2013-07-22 20:16:00,
2013-07-22 15:17:00,84.8,80.5,29.76,ENE,68,4.0,9.1,87,0.00,,CLR,0.00,VWS V14.01,2013-07-22 20:17:00,
2013-07-22 15:18:00,85.0,80.3,29.76,ENE,68,6.7,7.6,86,0.00,,CLR,0.00,VWS V14.01,2013-07-22 20:18:00,
2013-07-22 15:20:00,84.5,79.8,29.80,WNW,292,3.1,4.5,86,0.00,,CLR,0.00,VWS V14.01,2013-07-22 20:20:00,
2013-07-22 15:23:00,84.5,79.8,29.76,WNW,292,4.9,6.5,86,0.00,,CLR,0.00,VWS V14.01,2013-07-22 20:23:00,
2013-07-22 15:25:00,84.8,80.5,29.76,East,90,0.0,0.0,87,0.00,,CLR,0.00,VWS V14.01,2013-07-22 20:25:00,
2013-07-22 15:28:00,84.1,79.1,29.79,WNW,292,3.1,5.0,85,0.00,,CLR,0.00,VWS V14.01,2013-07-22 20:28:00,
2013-07-22 15:30:00,84.8,80.2,29.76,ENE,68,0.0,0.0,86,0.00,,CLR,0.00,VWS V14.01,2013-07-22 20:30:00,
2013-07-22 15:33:00,84.1,79.1,29.79,NNW,338,2.7,6.0,85,0.00,,CLR,0.00,VWS V14.01,2013-07-22 20:33:00,
2013-07-22 15:35:00,84.1,78.8,29.76,West,270,0.0,3.0,84,0.00,,CLR,0.00,VWS V14.01,2013-07-22 20:35:00,
2013-07-22 15:38:00,84.3,79.6,29.79,SW,225,0.0,5.0,86,0.00,,CLR,0.00,VWS V14.01,2013-07-22 20:38:00,
2013-07-22 15:40:00,84.1,79.5,29.80,SE,135,4.0,5.5,86,0.00,,OVC006,0.00,VWS V14.01,2013-07-22 20:40:00,
2013-07-22 15:43:00,84.5,79.8,29.76,NNW,338,0.0,0.0,86,0.00,,CLR,0.00,VWS V14.01,2013-07-22 20:43:00,
2013-07-22 15:45:00,84.1,79.5,29.80,NW,315,3.1,4.5,86,0.00,,OVC006,0.00,VWS V14.01,2013-07-22 20:45:00,
2013-07-22 15:48:00,84.5,79.8,29.76,ENE,68,2.2,3.5,86,0.00,,CLR,0.00,VWS V14.01,2013-07-22 20:48:00,
2013-07-22 15:50:00,84.3,79.6,29.80,NNW,338,1.8,3.0,86,0.00,,CLR,0.00,VWS V14.01,2013-07-22 20:50:00,
2013-07-22 15:53:00,84.5,79.8,29.76,NW,315,4.5,5.0,86,0.00,,CLR,0.00,VWS V14.01,2013-07-22 20:53:00,
2013-07-22 15:55:00,84.5,79.8,29.76,NE,45,2.7,3.5,86,0.00,,OVC006,0.00,VWS V14.01,2013-07-22 20:55:00,
2013-07-22 15:58:00,84.5,79.8,29.79,SW,225,1.8,3.5,86,0.00,,CLR,0.00,VWS V14.01,2013-07-22 20:58:00,
2013-07-22 16:00:00,84.5,79.8,29.76,WSW,248,4.0,4.5,86,0.00,,CLR,0.00,VWS V14.01,2013-07-22 21:00:00,
2013-07-22 16:03:00,84.5,79.5,29.79,WNW,292,4.9,5.5,85,0.00,,SCT042,0.00,VWS V14.01,2013-07-22 21:03:00,
2013-07-22 16:05:00,84.5,80.2,29.76,NNW,338,0.0,6.0,87,0.00,,CLR,0.00,VWS V14.01,2013-07-22 21:05:00,
2013-07-22 16:08:00,84.3,79.3,29.79,WNW,292,5.4,6.0,85,0.00,,SCT042,0.00,VWS V14.01,2013-07-22 21:08:00,
2013-07-22 16:10:00,84.5,79.8,29.80,NW,315,4.0,6.5,86,0.00,,OVC006,0.00,VWS V14.01,2013-07-22 21:10:00,
2013-07-22 16:13:00,84.5,79.1,29.82,WSW,248,2.7,3.5,84,0.00,,SCT042,0.00,VWS V14.01,2013-07-22 21:13:00,
2013-07-22 16:15:00,84.3,79.3,29.80,WNW,292,0.0,3.5,85,0.00,,OVC006,0.00,VWS V14.01,2013-07-22 21:15:00,
2013-07-22 16:18:00,84.1,78.0,29.82,WNW,292,0.0,0.0,82,0.00,,SCT042,0.00,VWS V14.01,2013-07-22 21:18:00,
2013-07-22 16:20:00,84.3,79.6,29.80,West,270,0.0,3.5,86,0.00,,CLR,0.00,VWS V14.01,2013-07-22 21:20:00,
2013-07-22 16:23:00,83.9,79.3,29.82,SSE,158,0.0,0.0,86,0.00,,SCT042,0.00,VWS V14.01,2013-07-22 21:23:00,
2013-07-22 16:25:00,84.3,78.9,29.82,West,270,0.0,5.0,84,0.00,,CLR,0.00,VWS V14.01,2013-07-22 21:25:00,
2013-07-22 16:28:00,84.1,79.8,29.76,NNW,338,0.0,0.0,87,0.00,,SCT042,0.00,VWS V14.01,2013-07-22 21:28:00,
2013-07-22 16:30:00,83.9,78.2,29.82,SSE,158,0.0,0.0,83,0.00,,CLR,0.00,VWS V14.01,2013-07-22 21:30:00,
2013-07-22 16:34:00,84.3,80.0,29.76,NNE,22,3.1,5.5,87,0.00,,SCT042,0.00,VWS V14.01,2013-07-22 21:34:00,
2013-07-22 16:35:00,83.9,79.6,29.82,East,90,6.3,7.0,87,0.00,,CLR,0.00,VWS V14.01,2013-07-22 21:35:00,
2013-07-22 16:39:00,84.1,79.5,29.76,NW,315,2.2,3.5,86,0.00,,SCT042,0.00,VWS V14.01,2013-07-22 21:39:00,
2013-07-22 16:40:00,84.1,79.8,29.76,NNW,338,2.7,3.0,87,0.00,,CLR,0.00,VWS V14.01,2013-07-22 21:40:00,
2013-07-22 16:44:00,83.9,78.6,29.79,NW,315,0.0,0.0,84,0.00,,SCT042,0.00,VWS V14.01,2013-07-22 21:44:00,
2013-07-22 16:45:00,84.3,80.0,29.76,NW,315,4.9,5.5,87,0.00,,CLR,0.00,VWS V14.01,2013-07-22 21:45:00,
2013-07-22 16:49:00,83.6,78.2,29.79,West,270,0.0,0.0,84,0.00,,SCT042,0.00,VWS V14.01,2013-07-22 21:49:00,
2013-07-22 16:50:00,83.9,79.3,29.76,NW,315,0.0,2.0,86,0.00,,CLR,0.00,VWS V14.01,2013-07-22 21:50:00,
2013-07-22 16:54:00,83.6,79.3,29.79,West,270,0.0,0.0,87,0.00,,SCT042,0.00,VWS V14.01,2013-07-22 21:54:00,
2013-07-22 16:55:00,83.7,78.4,29.80,NW,315,0.0,0.0,84,0.00,,CLR,0.00,VWS V14.01,2013-07-22 21:55:00,
2013-07-22 16:59:00,83.6,79.3,29.79,West,270,0.0,5.0,87,0.00,,SCT042,0.00,VWS V14.01,2013-07-22 21:59:00,
2013-07-22 17:00:00,83.6,79.3,29.80,West,270,0.0,0.0,87,0.00,,CLR,0.00,VWS V14.01,2013-07-22 22:00:00,
2013-07-22 17:04:00,83.6,79.3,29.79,WNW,292,1.8,4.5,87,0.00,,FEW037,0.00,VWS V14.01,2013-07-22 22:04:00,
2013-07-22 17:05:00,83.6,79.3,29.80,West,270,0.0,3.0,87,0.00,,CLR,0.00,VWS V14.01,2013-07-22 22:05:00,
2013-07-22 17:09:00,83.6,79.3,29.79,WNW,292,3.1,3.5,87,0.00,,FEW037,0.00,VWS V14.01,2013-07-22 22:09:00,
2013-07-22 17:10:00,83.6,79.3,29.80,West,270,0.0,0.0,87,0.00,,CLR,0.00,VWS V14.01,2013-07-22 22:10:00,
2013-07-22 17:14:00,83.7,79.5,29.79,WNW,292,3.1,5.5,87,0.00,,FEW037,0.00,VWS V14.01,2013-07-22 22:14:00,
2013-07-22 17:15:00,83.6,79.6,29.80,WNW,292,2.7,4.5,88,0.00,,CLR,0.00,VWS V14.01,2013-07-22 22:15:00,
2013-07-22 17:19:00,83.7,79.5,29.79,WNW,292,0.0,5.0,87,0.00,,FEW037,0.00,VWS V14.01,2013-07-22 22:19:00,
2013-07-22 17:20:00,83.6,79.6,29.80,WNW,292,2.2,3.5,88,0.00,,CLR,0.00,VWS V14.01,2013-07-22 22:20:00,
2013-07-22 17:24:00,83.7,79.5,29.79,WNW,292,3.1,3.5,87,0.00,,FEW037,0.00,VWS V14.01,2013-07-22 22:24:00,
2013-07-22 17:25:00,83.7,79.5,29.80,WNW,292,4.9,5.5,87,0.00,,CLR,0.00,VWS V14.01,2013-07-22 22:25:00,
2013-07-22 17:29:00,83.7,79.5,29.76,NW,315,1.8,3.5,87,0.00,,FEW037,0.00,VWS V14.01,2013-07-22 22:29:00,
2013-07-22 17:30:00,83.7,79.5,29.80,WNW,292,4.0,4.5,87,0.00,,CLR,0.00,VWS V14.01,2013-07-22 22:30:00,
2013-07-22 17:34:00,83.7,79.5,29.76,NNW,338,2.2,4.5,87,0.00,,FEW037,0.00,VWS V14.01,2013-07-22 22:34:00,
2013-07-22 17:35:00,83.7,79.5,29.80,WNW,292,2.2,3.5,87,0.00,,CLR,0.00,VWS V14.01,2013-07-22 22:35:00,
2013-07-22 17:39:00,83.6,79.6,29.76,ENE,68,0.0,0.0,88,0.00,,FEW037,0.00,VWS V14.01,2013-07-22 22:39:00,
2013-07-22 17:40:00,83.7,79.5,29.76,NW,315,3.1,3.5,87,0.00,,CLR,0.00,VWS V14.01,2013-07-22 22:40:00,
2013-07-22 17:44:00,83.4,79.5,29.76,North,0,0.0,0.0,88,0.00,,FEW037,0.00,VWS V14.01,2013-07-22 22:44:00,
2013-07-22 17:45:00,83.7,79.5,29.76,WNW,292,2.2,5.0,87,0.00,,CLR,0.00,VWS V14.01,2013-07-22 22:45:00,
2013-07-22 17:50:00,83.4,79.5,29.76,North,0,0.0,0.0,88,0.00,,FEW037,0.00,VWS V14.01,2013-07-22 22:50:00,
2013-07-22 17:55:00,83.2,79.3,29.76,NNW,338,0.0,0.0,88,0.00,,FEW037,0.00,VWS V14.01,2013-07-22 22:55:00,
2013-07-22 18:00:00,83.0,79.4,29.76,East,90,0.0,0.0,89,0.00,,CLR,0.00,VWS V14.01,2013-07-22 23:00:00,
2013-07-22 18:05:00,83.0,79.4,29.76,SE,135,0.0,0.0,89,0.00,,CLR,0.00,VWS V14.01,2013-07-22 23:05:00,
2013-07-22 18:10:00,83.0,79.4,29.76,East,90,0.0,6.0,89,0.00,,CLR,0.00,VWS V14.01,2013-07-22 23:10:00,
2013-07-22 18:15:00,83.2,79.6,29.76,East,90,0.0,0.0,89,0.00,,CLR,0.00,VWS V14.01,2013-07-22 23:15:00,
2013-07-22 18:20:00,83.0,79.8,29.76,East,90,2.7,3.0,90,0.00,,CLR,0.00,VWS V14.01,2013-07-22 23:20:00,
2013-07-22 18:25:00,83.0,79.8,29.76,East,90,0.0,0.0,90,0.00,,CLR,0.00,VWS V14.01,2013-07-22 23:25:00,
2013-07-22 18:30:00,83.0,79.8,29.76,East,90,4.0,4.5,90,0.00,,CLR,0.00,VWS V14.01,2013-07-22 23:30:00,
2013-07-22 18:35:00,83.0,79.4,29.76,East,90,0.0,0.0,89,0.00,,CLR,0.00,VWS V14.01,2013-07-22 23:35:00,
2013-07-22 18:40:00,83.0,79.8,29.76,East,90,4.0,4.5,90,0.00,,CLR,0.00,VWS V14.01,2013-07-22 23:40:00,
2013-07-22 18:41:00,83.0,79.4,29.76,East,90,0.0,0.0,89,0.00,,CLR,0.00,VWS V14.01,2013-07-22 23:41:00,
2013-07-22 18:45:00,83.0,79.4,29.76,East,90,0.0,0.0,89,0.00,,CLR,0.00,VWS V14.01,2013-07-22 23:45:00,
2013-07-22 18:46:00,83.0,79.8,29.76,East,90,0.0,0.0,90,0.00,,CLR,0.00,VWS V14.01,2013-07-22 23:46:00,
2013-07-22 18:50:00,83.0,79.4,29.76,East,90,0.0,0.0,89,0.00,,CLR,0.00,VWS V14.01,2013-07-22 23:50:00,
2013-07-22 18:51:00,82.8,79.6,29.76,East,90,0.0,0.0,90,0.00,,CLR,0.00,VWS V14.01,2013-07-22 23:51:00,
2013-07-22 18:55:00,83.0,79.4,29.76,East,90,0.0,0.0,89,0.00,,CLR,0.00,VWS V14.01,2013-07-22 23:55:00,
2013-07-22 18:56:00,82.8,79.6,29.76,SSW,202,0.0,0.0,90,0.00,,CLR,0.00,VWS V14.01,2013-07-22 23:56:00,
2013-07-22 19:00:00,82.8,79.6,29.76,East,90,0.0,0.0,90,0.00,,CLR,0.00,VWS V14.01,2013-07-23 00:00:00,
2013-07-22 19:01:00,82.7,79.4,29.76,ENE,68,0.0,0.0,90,0.00,,CLR,0.00,VWS V14.01,2013-07-23 00:01:00,
2013-07-22 19:05:00,82.8,79.6,29.76,SSW,202,0.0,0.0,90,0.00,,CLR,0.00,VWS V14.01,2013-07-23 00:05:00,
2013-07-22 19:06:00,82.7,79.1,29.76,ENE,68,0.0,0.0,89,0.00,,CLR,0.00,VWS V14.01,2013-07-23 00:06:00,
2013-07-22 19:10:00,82.7,79.4,29.76,East,90,0.0,0.0,90,0.00,,CLR,0.00,VWS V14.01,2013-07-23 00:10:00,
2013-07-22 19:11:00,82.5,79.2,29.76,ENE,68,0.0,0.0,90,0.00,,CLR,0.00,VWS V14.01,2013-07-23 00:11:00,
2013-07-22 19:15:00,82.7,79.4,29.76,ENE,68,0.0,0.0,90,0.00,,CLR,0.00,VWS V14.01,2013-07-23 00:15:00,
2013-07-22 19:16:00,82.5,79.2,29.76,ENE,68,0.0,0.0,90,0.00,,CLR,0.00,VWS V14.01,2013-07-23 00:16:00,
2013-07-22 19:20:00,82.7,79.4,29.76,ENE,68,0.0,0.0,90,0.00,,CLR,0.00,VWS V14.01,2013-07-23 00:20:00,
2013-07-22 19:21:00,82.3,79.1,29.76,ENE,68,0.0,0.0,90,0.00,,CLR,0.00,VWS V14.01,2013-07-23 00:21:00,
2013-07-22 19:25:00,82.5,79.2,29.76,ENE,68,0.0,0.0,90,0.00,,CLR,0.00,VWS V14.01,2013-07-23 00:25:00,
2013-07-22 19:27:00,82.1,79.2,29.76,ENE,68,0.0,0.0,91,0.00,,CLR,0.00,VWS V14.01,2013-07-23 00:27:00,
2013-07-22 19:30:00,82.3,79.1,29.76,ENE,68,0.0,0.0,90,0.00,,CLR,0.00,VWS V14.01,2013-07-23 00:30:00,
2013-07-22 19:32:00,81.9,79.1,29.76,ESE,112,0.0,0.0,91,0.00,,CLR,0.00,VWS V14.01,2013-07-23 00:32:00,
2013-07-22 19:35:00,82.1,79.2,29.76,ENE,68,0.0,0.0,91,0.00,,CLR,0.00,VWS V14.01,2013-07-23 00:35:00,
2013-07-22 19:37:00,81.8,78.9,29.76,ESE,112,0.0,0.0,91,0.00,,CLR,0.00,VWS V14.01,2013-07-23 00:37:00,
2013-07-22 19:40:00,81.9,79.1,29.76,ESE,112,0.0,0.0,91,0.00,,CLR,0.00,VWS V14.01,2013-07-23 00:40:00,
2013-07-22 19:42:00,81.6,79.0,29.76,ESE,112,0.0,0.0,92,0.00,,CLR,0.00,VWS V14.01,2013-07-23 00:42:00,
2013-07-22 19:45:00,81.8,78.9,29.76,ESE,112,0.0,0.0,91,0.00,,CLR,0.00,VWS V14.01,2013-07-23 00:45:00,
2013-07-22 19:47:00,81.4,79.2,29.76,ESE,112,0.0,0.0,93,0.00,,CLR,0.00,VWS V14.01,2013-07-23 00:47:00,
2013-07-22 19:50:00,81.8,79.2,29.76,ESE,112,0.0,0.0,92,0.00,,CLR,0.00,VWS V14.01,2013-07-23 00:50:00,
2013-07-22 19:52:00,81.2,79.3,29.76,ESE,112,0.0,0.0,94,0.00,,CLR,0.00,VWS V14.01,2013-07-23 00:52:00,
2013-07-22 19:55:00,81.4,78.9,29.76,ESE,112,0.0,0.0,92,0.00,,CLR,0.00,VWS V14.01,2013-07-23 00:55:00,
2013-07-22 19:57:00,81.0,79.2,29.76,ESE,112,0.0,0.0,94,0.00,,CLR,0.00,VWS V14.01,2013-07-23 00:57:00,
2013-07-22 20:00:00,81.2,79.0,29.76,ESE,112,0.0,0.0,93,0.00,,OVC006,0.00,VWS V14.01,2013-07-23 01:00:00,
2013-07-22 20:02:00,80.9,79.0,29.76,ESE,112,0.0,0.0,94,0.00,,CLR,0.00,VWS V14.01,2013-07-23 01:02:00,
2013-07-22 20:05:00,81.0,79.2,29.76,ESE,112,0.0,0.0,94,0.00,,CLR,0.00,VWS V14.01,2013-07-23 01:05:00,
2013-07-22 20:07:00,80.5,78.9,29.76,ESE,112,0.0,0.0,95,0.00,,CLR,0.00,VWS V14.01,2013-07-23 01:07:00,
2013-07-22 20:10:00,80.9,79.0,29.76,ESE,112,0.0,0.0,94,0.00,,CLR,0.00,VWS V14.01,2013-07-23 01:10:00,
2013-07-22 20:12:00,80.3,78.8,29.76,ESE,112,0.0,0.0,95,0.00,,CLR,0.00,VWS V14.01,2013-07-23 01:12:00,
2013-07-22 20:15:00,80.7,79.1,29.76,ESE,112,0.0,0.0,95,0.00,,CLR,0.00,VWS V14.01,2013-07-23 01:15:00,
2013-07-22 20:17:00,80.1,78.6,29.76,ESE,112,0.0,0.0,95,0.00,,CLR,0.00,VWS V14.01,2013-07-23 01:17:00,
2013-07-22 20:20:00,80.5,78.9,29.76,ESE,112,0.0,0.0,95,0.00,,CLR,0.00,VWS V14.01,2013-07-23 01:20:00,
2013-07-22 20:22:00,80.0,78.4,29.76,ESE,112,0.0,0.0,95,0.00,,CLR,0.00,VWS V14.01,2013-07-23 01:22:00,
2013-07-22 20:25:00,80.3,78.8,29.76,ESE,112,0.0,0.0,95,0.00,,CLR,0.00,VWS V14.01,2013-07-23 01:25:00,
2013-07-22 20:27:00,79.8,78.2,29.76,ESE,112,0.0,0.0,95,0.00,,CLR,0.00,VWS V14.01,2013-07-23 01:27:00,
2013-07-22 20:30:00,80.1,78.6,29.76,ESE,112,0.0,0.0,95,0.00,,OVC006,0.00,VWS V14.01,2013-07-23 01:30:00,
2013-07-22 20:32:00,79.6,78.4,29.76,ESE,112,0.0,0.0,96,0.00,,CLR,0.00,VWS V14.01,2013-07-23 01:32:00,
2013-07-22 20:35:00,80.0,78.4,29.76,ESE,112,0.0,0.0,95,0.00,,CLR,0.00,VWS V14.01,2013-07-23 01:35:00,
2013-07-22 20:37:00,79.4,78.2,29.76,ESE,112,0.0,0.0,96,0.00,,CLR,0.00,VWS V14.01,2013-07-23 01:37:00,
2013-07-22 20:40:00,79.6,78.4,29.76,ESE,112,0.0,0.0,96,0.00,,CLR,0.00,VWS V14.01,2013-07-23 01:40:00,
2013-07-22 20:43:00,79.1,78.1,29.76,NE,45,0.0,0.0,97,0.00,,CLR,0.00,VWS V14.01,2013-07-23 01:43:00,
2013-07-22 20:45:00,79.4,78.2,29.76,ESE,112,0.0,0.0,96,0.00,,CLR,0.00,VWS V14.01,2013-07-23 01:45:00,
2013-07-22 20:48:00,78.9,78.0,29.76,NE,45,0.0,0.0,97,0.00,,CLR,0.00,VWS V14.01,2013-07-23 01:48:00,
2013-07-22 20:50:00,79.2,78.0,29.76,NE,45,0.0,0.0,96,0.00,,CLR,0.00,VWS V14.01,2013-07-23 01:50:00,
2013-07-22 20:53:00,78.7,77.8,29.76,NE,45,0.0,0.0,97,0.00,,CLR,0.00,VWS V14.01,2013-07-23 01:53:00,
2013-07-22 20:55:00,79.1,78.1,29.76,NE,45,0.0,0.0,97,0.00,,CLR,0.00,VWS V14.01,2013-07-23 01:55:00,
2013-07-22 20:58:00,78.5,77.6,29.76,NE,45,0.0,0.0,97,0.00,,CLR,0.00,VWS V14.01,2013-07-23 01:58:00,
2013-07-22 21:00:00,78.9,78.0,29.76,NE,45,0.0,0.0,97,0.00,,CLR,0.00,VWS V14.01,2013-07-23 02:00:00,
2013-07-22 21:03:00,78.3,77.4,29.76,NE,45,0.0,0.0,97,0.00,,CLR,0.00,VWS V14.01,2013-07-23 02:03:00,
2013-07-22 21:05:00,78.7,77.8,29.76,NE,45,0.0,0.0,97,0.00,,CLR,0.00,VWS V14.01,2013-07-23 02:05:00,
2013-07-22 21:08:00,78.2,77.6,29.76,NE,45,0.0,0.0,98,0.00,,CLR,0.00,VWS V14.01,2013-07-23 02:08:00,
2013-07-22 21:10:00,78.5,77.6,29.76,NE,45,0.0,0.0,97,0.00,,CLR,0.00,VWS V14.01,2013-07-23 02:10:00,
2013-07-22 21:13:00,78.0,77.4,29.79,NE,45,0.0,0.0,98,0.00,,CLR,0.00,VWS V14.01,2013-07-23 02:13:00,
2013-07-22 21:15:00,78.3,77.7,29.76,NE,45,0.0,0.0,98,0.00,,CLR,0.00,VWS V14.01,2013-07-23 02:15:00,
2013-07-22 21:18:00,78.0,77.4,29.79,NE,45,0.0,0.0,98,0.00,,CLR,0.00,VWS V14.01,2013-07-23 02:18:00,
2013-07-22 21:20:00,78.2,77.6,29.76,NE,45,0.0,0.0,98,0.00,,CLR,0.00,VWS V14.01,2013-07-23 02:20:00,
2013-07-22 21:23:00,77.8,77.2,29.79,NE,45,0.0,0.0,98,0.00,,CLR,0.00,VWS V14.01,2013-07-23 02:23:00,
2013-07-22 21:25:00,78.0,77.4,29.80,NE,45,0.0,0.0,98,0.00,,OVC006,0.00,VWS V14.01,2013-07-23 02:25:00,
2013-07-22 21:28:00,77.6,77.3,29.79,NE,45,0.0,0.0,99,0.00,,CLR,0.00,VWS V14.01,2013-07-23 02:28:00,
2013-07-22 21:30:00,77.8,77.2,29.80,NE,45,0.0,0.0,98,0.00,,CLR,0.00,VWS V14.01,2013-07-23 02:30:00,
2013-07-22 21:33:00,77.4,77.1,29.79,NE,45,0.0,0.0,99,0.00,,CLR,0.00,VWS V14.01,2013-07-23 02:33:00,
2013-07-22 21:35:00,77.8,77.5,29.80,NE,45,0.0,0.0,99,0.00,,CLR,0.00,VWS V14.01,2013-07-23 02:35:00,
2013-07-22 21:39:00,77.3,77.0,29.79,NE,45,0.0,0.0,99,0.00,,CLR,0.00,VWS V14.01,2013-07-23 02:39:00,
2013-07-22 21:40:00,77.6,77.3,29.80,NE,45,0.0,0.0,99,0.00,,CLR,0.00,VWS V14.01,2013-07-23 02:40:00,
2013-07-22 21:44:00,77.3,77.3,29.79,NE,45,0.0,0.0,100,0.00,,CLR,0.00,VWS V14.01,2013-07-23 02:44:00,
2013-07-22 21:45:00,77.4,77.1,29.80,NE,45,0.0,0.0,99,0.00,,CLR,0.00,VWS V14.01,2013-07-23 02:45:00,
2013-07-22 21:49:00,77.1,77.1,29.79,NE,45,0.0,0.0,100,0.00,,CLR,0.00,VWS V14.01,2013-07-23 02:49:00,
2013-07-22 21:50:00,77.3,77.3,29.80,NE,45,0.0,0.0,100,0.00,,CLR,0.00,VWS V14.01,2013-07-23 02:50:00,
2013-07-22 21:54:00,76.9,76.9,29.79,NE,45,0.0,0.0,100,0.00,,CLR,0.00,VWS V14.01,2013-07-23 02:54:00,
2013-07-22 21:55:00,77.3,77.3,29.80,NE,45,0.0,0.0,100,0.00,,CLR,0.00,VWS V14.01,2013-07-23 02:55:00,
2013-07-22 21:59:00,76.9,76.9,29.82,NE,45,0.0,0.0,100,0.00,,CLR,0.00,VWS V14.01,2013-07-23 02:59:00,
2013-07-22 22:00:00,77.1,77.1,29.80,NE,45,0.0,0.0,100,0.00,,CLR,0.00,VWS V14.01,2013-07-23 03:00:00,
2013-07-22 22:04:00,76.7,76.7,29.82,NE,45,0.0,0.0,100,0.00,,CLR,0.00,VWS V14.01,2013-07-23 03:04:00,
2013-07-22 22:05:00,76.9,76.9,29.80,NE,45,0.0,0.0,100,0.00,,CLR,0.00,VWS V14.01,2013-07-23 03:05:00,
2013-07-22 22:09:00,76.7,76.7,29.82,NE,45,0.0,0.0,100,0.00,,CLR,0.00,VWS V14.01,2013-07-23 03:09:00,
2013-07-22 22:10:00,76.9,76.9,29.82,NE,45,0.0,0.0,100,0.00,,CLR,0.00,VWS V14.01,2013-07-23 03:10:00,
2013-07-22 22:14:00,76.5,76.6,29.76,NE,45,0.0,0.0,100,0.00,,CLR,0.00,VWS V14.01,2013-07-23 03:14:00,
2013-07-22 22:15:00,76.7,76.7,29.82,NE,45,0.0,0.0,100,0.00,,CLR,0.00,VWS V14.01,2013-07-23 03:15:00,
2013-07-22 22:19:00,76.5,76.6,29.76,NE,45,0.0,0.0,100,0.00,,CLR,0.00,VWS V14.01,2013-07-23 03:19:00,
2013-07-22 22:20:00,76.7,76.7,29.82,NE,45,0.0,0.0,100,0.00,,CLR,0.00,VWS V14.01,2013-07-23 03:20:00,
2013-07-22 22:24:00,76.4,76.4,29.76,NE,45,0.0,0.0,100,0.00,,CLR,0.00,VWS V14.01,2013-07-23 03:24:00,
2013-07-22 22:25:00,76.5,76.6,29.76,NE,45,0.0,0.0,100,0.00,,CLR,0.00,VWS V14.01,2013-07-23 03:25:00,
2013-07-22 22:30:00,76.2,76.2,29.76,NE,45,0.0,0.0,100,0.00,,CLR,0.00,VWS V14.01,2013-07-23 03:30:00,
2013-07-22 22:35:00,76.2,76.2,29.76,NE,45,0.0,0.0,100,0.00,,CLR,0.00,VWS V14.01,2013-07-23 03:35:00,
2013-07-22 22:40:00,76.2,76.2,29.76,NE,45,0.0,0.0,100,0.00,,CLR,0.00,VWS V14.01,2013-07-23 03:40:00,
2013-07-22 22:45:00,76.0,76.0,29.79,NE,45,0.0,0.0,100,0.00,,CLR,0.00,VWS V14.01,2013-07-23 03:45:00,
2013-07-22 22:50:00,76.0,76.0,29.79,NE,45,0.0,0.0,100,0.00,,CLR,0.00,VWS V14.01,2013-07-23 03:50:00,
2013-07-22 22:55:00,76.0,76.0,29.79,NE,45,0.0,0.0,100,0.00,,CLR,0.00,VWS V14.01,2013-07-23 03:55:00,
2013-07-22 23:00:00,75.8,75.8,29.82,NE,45,0.0,0.0,100,0.00,,CLR,0.00,VWS V14.01,2013-07-23 04:00:00,
2013-07-22 23:01:00,75.8,75.8,29.82,NE,45,0.0,0.0,100,0.00,,CLR,0.00,VWS V14.01,2013-07-23 04:01:00,
2013-07-22 23:02:00,75.8,75.8,29.82,NE,45,0.0,0.0,100,0.00,,CLR,0.00,VWS V14.01,2013-07-23 04:02:00,
2013-07-22 23:05:00,76.0,76.0,29.80,NE,45,0.0,0.0,100,0.00,,CLR,0.00,VWS V14.01,2013-07-23 04:05:00,
2013-07-22 23:07:00,75.8,75.8,29.82,NE,45,0.0,0.0,100,0.00,,CLR,0.00,VWS V14.01,2013-07-23 04:07:00,
2013-07-22 23:10:00,75.8,75.8,29.82,NE,45,0.0,0.0,100,0.00,,CLR,0.00,VWS V14.01,2013-07-23 04:10:00,
2013-07-22 23:12:00,75.8,75.8,29.85,NE,45,0.0,0.0,100,0.00,,CLR,0.00,VWS V14.01,2013-07-23 04:12:00,
2013-07-22 23:15:00,75.8,75.8,29.82,NE,45,0.0,0.0,100,0.00,,CLR,0.00,VWS V14.01,2013-07-23 04:15:00,
2013-07-22 23:17:00,75.6,75.7,29.85,NE,45,0.0,0.0,100,0.00,,CLR,0.00,VWS V14.01,2013-07-23 04:17:00,
2013-07-22 23:20:00,75.8,75.8,29.82,NE,45,0.0,0.0,100,0.00,,CLR,0.00,VWS V14.01,2013-07-23 04:20:00,
2013-07-22 23:22:00,75.6,75.7,29.85,NE,45,0.0,0.0,100,0.00,,CLR,0.00,VWS V14.01,2013-07-23 04:22:00,
2013-07-22 23:25:00,75.6,75.6,29.85,NE,45,0.0,0.0,100,0.00,,CLR,0.00,VWS V14.01,2013-07-23 04:25:00,
2013-07-22 23:27:00,75.5,75.5,29.85,NE,45,0.0,0.0,100,0.00,,CLR,0.00,VWS V14.01,2013-07-23 04:27:00,
2013-07-22 23:30:00,75.6,75.6,29.85,NE,45,0.0,0.0,100,0.00,,CLR,0.00,VWS V14.01,2013-07-23 04:30:00,
2013-07-22 23:32:00,75.5,75.5,29.85,NE,45,0.0,0.0,100,0.00,,CLR,0.00,VWS V14.01,2013-07-23 04:32:00,
2013-07-22 23:35:00,75.6,75.6,29.85,NE,45,0.0,0.0,100,0.00,,CLR,0.00,VWS V14.01,2013-07-23 04:35:00,
2013-07-22 23:37:00,75.3,75.3,29.85,NE,45,0.0,0.0,100,0.00,,CLR,0.00,VWS V14.01,2013-07-23 04:37:00,
2013-07-22 23:40:00,75.5,75.5,29.85,NE,45,0.0,0.0,100,0.00,,CLR,0.00,VWS V14.01,2013-07-23 04:40:00,
2013-07-22 23:43:00,75.3,75.3,29.85,NE,45,0.0,0.0,100,0.00,,CLR,0.00,VWS V14.01,2013-07-23 04:43:00,
2013-07-22 23:45:00,75.5,75.5,29.85,NE,45,0.0,0.0,100,0.00,,CLR,0.00,VWS V14.01,2013-07-23 04:45:00,
2013-07-22 23:48:00,75.3,75.3,29.85,NE,45,0.0,0.0,100,0.00,,CLR,0.00,VWS V14.01,2013-07-23 04:48:00,
2013-07-22 23:50:00,75.3,75.3,29.85,NE,45,0.0,0.0,100,0.00,,CLR,0.00,VWS V14.01,2013-07-23 04:50:00,
2013-07-22 23:53:00,75.3,75.3,29.85,NE,45,0.0,0.0,100,0.00,,CLR,0.00,VWS V14.01,2013-07-23 04:53:00,
2013-07-22 23:55:00,75.3,75.3,29.85,NE,45,0.0,0.0,100,0.00,,CLR,0.00,VWS V14.01,2013-07-23 04:55:00,
2013-07-22 23:58:00,75.1,75.1,29.82,NE,45,0.0,0.0,100,0.00,,CLR,0.00,VWS V14.01,2013-07-23 04:58:00,